Terminal Aerodrome Forecast
Issued by NWS Portland, OR

Home | Current Version | Previous Version | Text Only | Print | Product List | Glossary On
Versions: 1 2 3 4 5 6 7 8 9 10 11 12 13 14 15 16 17 18 19 20 21 22 23 24 25 26 27 28 29 30 31 32 33 34 35 36 37 38 39 40 41 42 43 44 45 46 47 48 49 50
000
FTUS46 KPQR 012338
TAFPDX
TAF
KPDX 012338Z 0200/0224 33005KT P6SM BKN045
     FM020300 VRB03KT P6SM SKC
     FM021000 00000KT 4SM BR BKN003
     FM021200 00000KT 3SM BR OVC003
     FM021700 VRB03KT 5SM BR BKN004
     FM021900 34005KT P6SM SKC=

USA.gov is the U.S. government's official web portal to all federal, state and local government web resources and services.